Regional Weather Roundup
Issued by NWS

Home | Current Version | Previous Version | Graphics & Text | Print | Product List | Glossary On
Versions: 1 2 3 4 5 6 7 8 9 10 11 12 13 14 15 16 17 18 19 20 21 22 23 24 25 26 27 28 29 30 31 32 33 34 35 36 37 38 39 40 41 42 43 44 45 46 47 48 49 50
000
ASUS43 KTOP 271959
RWRKS

WEATHER ROUNDUP FOR KANSAS
NATIONAL WEATHER SERVICE GOODLAND KS
300 PM CDT MON APR 27 2015

NOTE:  "FAIR" INDICATES FEW OR NO CLOUDS BELOW 12,000 FEET WITH NO
SIGNIFICANT WEATHER AND/OR OBSTRUCTIONS TO VISIBILITY.

KSZ001>006-013>018-027>032-041>047-272100-
NORTHWEST KANSAS

CITY           SKY/WX    TMP DP  RH WIND       PRES   REMARKS
GOODLAND       MOSUNNY   58  33  39 NE23      30.20F
HAYS           PTSUNNY   61  32  33 NE23G30   30.13S
HILL CITY      PTSUNNY   60  32  34 NE23G32   30.16F
RUSSELL        PTSUNNY   61  33  35 NE20G33   30.10R
$$

KSZ061>065-074>080-084>089-272100-
SOUTHWEST KANSAS

CITY           SKY/WX    TMP DP  RH WIND       PRES   REMARKS
DODGE CITY     CLOUDY    54  33  45 NE25G31   30.08R
ELKHART          N/A     42  33  70 N18         N/A
GARDEN CITY    CLOUDY    52  31  44 NE25G36   30.10S
GREAT BEND     PTSUNNY   61  36  39 NE23G31   30.10R
LIBERAL        CLOUDY    46  41  81 N17       30.08F
$$

KSZ066>073-081>083-090>101-272100-
SOUTHEAST KANSAS

CITY           SKY/WX    TMP DP  RH WIND       PRES   REMARKS
CHANUTE        CLOUDY    63  38  39 E15G29    30.02F
COFFEYVILLE    CLOUDY    62  36  37 NE18G26   29.98F
HUTCHINSON     CLOUDY    61  35  37 NE16G26   30.06S
MEDICINE LODGE   N/A     53  40  61 NE15      30.03R
NEWTON         CLOUDY    57  36  44 NE14G24   30.08R
WICHITA INTL   CLOUDY    62  33  33 NE22G33   30.03S
WICHITA JABRA  CLOUDY    60  33  36 E21G29    30.03S
WINFIELD       CLOUDY    60  33  36 NE18G30   29.99F
$$

KSZ007>012-019>026-033>040-048>060-102>105-272100-
NORTHEAST KANSAS

CITY           SKY/WX    TMP DP  RH WIND       PRES   REMARKS
CONCORDIA      PTSUNNY   63  35  35 NE16      30.13F
EMPORIA        CLOUDY    62  36  37 NE20      30.05F
LAWRENCE       MOSUNNY   65  38  36 NE15G22   30.09F
MANHATTAN      MOSUNNY   65  39  38 NE18      30.10F
OLATHE IND     MOSUNNY   65  36  34 NE15      30.08F
OLATHE EXE     MOSUNNY   65  36  34 NE14G20   30.07F
SALINA         MOSUNNY   63  34  33 NE14G25   30.10S
TOPEKA BILLARD MOSUNNY   64  37  36 NE16      30.09F
TOPEKA FORBES  MOSUNNY   65  39  38 NE14G22   30.09F
$$


USA.gov is the U.S. government's official web portal to all federal, state and local government web resources and services.